Home > Weather > Celje > Past weeks

Flag for Slovenia Past Weather in Celje, Slovenia — Yesterday and Last 2 Weeks

Now
77 °F

Mild.


Feels Like: N/A
Forecast: 54 / 78 °F
Wind: 6 mph from East

Location: Celje

Current Time: Aug 24, 2016 at 2:26:30 PM

Latest Report: Aug 24, 2016 at 1:00 PM


Visibility: N/A

Pressure: N/A

Humidity: N/A

Dew Point: N/A

Location of CeljeLocation

Past Weather in Celje — Graph

°F

Celje Temperature Yesterday

Maximum temperature yesterday: 79 °F (at 4:00 PM)
Minimum temperature yesterday: 53 °F (at 6:00 AM)
Average temperature yesterday: 67 °F

High & Low Weather Summary for the Past Weeks

 TemperatureHumidityPressure
High85 °F (Aug 15, 4:00 PM)99% (Aug 12, 5:00 AM)30.34 "Hg (Aug 12, 5:00 AM)
Low43 °F (Aug 12, 6:00 AM)39% (Aug 22, 6:00 PM)29.82 "Hg (Aug 18, 5:00 PM)
Average65 °F80%30.09 "Hg
* Reported Aug 9 1:00 PM — Aug 24 1:00 PM, Celje, Weather by CustomWeather, © 2016

Note: Actual official high and low records may vary slightly from our data, if they occured in-between our weather recording intervals... More about our weather records

Advertising

Celje Weather History for the Previous 24 Hours

Scroll right to see more
 ConditionsComfort  
Time TempWeatherWind HumidityBarometerVisibility
1:00 PM
Wed, Aug 24
77 °FMild.6 mphN/AN/AN/A
11:00 AM72 °FMild.1 mph64%30.27 "HgN/A
10:00 AM68 °FMild.1 mph67%30.28 "HgN/A
9:00 AM62 °FCool.1 mph83%30.30 "HgN/A
8:00 AM58 °FOvercast.1 mph94%30.31 "Hg31 mi
7:00 AM56 °FCool.1 mph97%30.30 "HgN/A
6:00 AM55 °FCool.1 mph98%30.30 "HgN/A
5:00 AM54 °FCool.No wind96%30.29 "HgN/A
4:00 AM55 °FCool.1 mph96%30.29 "HgN/A
3:00 AM55 °FCool.1 mph96%30.30 "HgN/A
2:00 AM56 °FCool.No wind95%30.30 "HgN/A
1:00 AM58 °FCool.1 mph92%30.30 "HgN/A
12:00 AM59 °FCool.2 mph93%30.31 "HgN/A
11:00 PM
Tue, Aug 23
58 °FCool.No wind92%30.30 "HgN/A
10:00 PM60 °FCool.1 mph89%30.29 "HgN/A
9:00 PM65 °FMild.1 mph75%30.27 "HgN/A
8:00 PM71 °FPassing clouds.2 mph56%30.24 "Hg34 mi
7:00 PM75 °FMild.3 mph46%30.22 "HgN/A
6:00 PM77 °FWarm.3 mph43%30.22 "HgN/A
5:00 PM78 °FWarm.3 mph41%30.22 "HgN/A
4:00 PM79 °FWarm.5 mph41%30.23 "HgN/A
3:00 PM78 °FPassing clouds.5 mph40%30.24 "Hg34 mi
2:00 PM78 °FPassing clouds.3 mph41%30.24 "Hg34 mi
Weather by CustomWeather, © 2016

See weather overviewHow to use our weather pages